Probability
0 0 0 0 0 0 0 0 0 0 0 0 0 0 0 0 0 0 0 0 0 0 0 0 0 0 0 0 0 0 0 0 0 0 0 0 0 0 0 0 0 0 0 0
0 0 0 0 0 0 0 0 0 0 0 0 0 0 0 0 0 0 0 0 0 0 0 0 0 0 0 0 0 0 0 0 0 0 0 0 0 0 0 0 0 0 0 0
0 0 0 0 0 0 0 0 0 0 0 0 0 0 0 0 0 0 0 0 0 0 0 0 0 0 0 0 0 0 0 0 0 0 0 0 0 0 0 0 0 0 0 0
0 0 0 0 0 0 0 0 0 0 0 0 0 0 0 0 0 0 0 0 0 0 0 0 0 0 0 0 0 0 0 0 0 0 0 0 0 0 0 0 0 0 0 0
0 0 0 0 0 0 0 0 0 0 0 0 0 0 0 0 0 0 0 0 0 0 0 0 0 0 0 0 0 0 0 0 0 0 0 0 0 0 0 0 0 0 0 0
0 0 0 0 0 0 0 0 0 0 0 0 0 0 0 0 0 0 0 0 0 0 0 0 0 0 0 0 0 0 0 0 0 0 0 0 0 0 0 0 0 0 0 0
0 0 0 0 0 0 0 0 0 0 0 0 0 0 0 0 0 0 0 0 0 0 0 0 0 0 0 0 0 0 0 0 0 0 0 0 0 0 0 0 0 0 0 0
0 0 0 0 0 0 0 0 0 0 0 0 0 0 0 0 0 0 0 0 0 0 0 0 0 0 0 0 0 0 0 0 0 0 0 0 0 0 0 0 0 0 0 0
0 0 0 0 0 0 0 0 0 0 0 0 0 0 0 0 0 0 0 0 0 0 0 0 0 0 0 0 0 0 0 0 0 0 0 0 0 0 0 0 0 0 0 0
0 0 0 0 0 0 0 0 0 0 0 0 0 0 0 0 0 0 0 0 0 0 0 0 0 0 0 0 0 0 0 0 0 0 0 0 0 0 0 0 0 0 0 0
0 0 0 0 0 0 0 0 0 0 0 0 0 0 0 0 0 0 0 0 0 0 0 0 0 0 0 0 0 0 0 0 0 0 0 0 0 0 0 0 0 0 0 0
0 0 0 0 0 0 0 0 0 0 0 0 0 0 0 0 0 0 0 0 0 0 0 0 0 0 0 0 0 0 0 0 0 0 0 0 0 0 0 0 0 0 0 0
0 0 0 0 0 0 0 0 0 0 0 0 0 0 0 0 0 0 0 0 0 0 0 0 0 0 0 0 0 0 0 0 0 0 0 0 0 0 0 0 0 0 0 0
0 0 0 0 0 0 0 0 0 0 0 0 0 0 0 0 0 0 0 0 0 0 0 0 0 0 0 0 0 0 0 0 0 0 0 0 0 0 0 0 0 0 0 0
0 0 0 0 0 0 0 0 0 0 0 0 0 0 0 0 0 0 0 0 0 0 0 0 0 0 0 0 0 0 0 0 0 0 0 0 0 0 0 0 0 0 0 0
0 0 0 0 0 0 0 0 0 0 0 0 0 0 0 0 0 0 0 0 0 0 0 0 0 0 0 0 0 0 0 0 0 0 0 0 0 0 0 0 0 0 0 0
0 0 0 0 0 0 0 0 0 0 0 0 0 0 0 0 0 0 0 0 0 0 0 0 0 0 0 0 0 0 0 0 0 0 0 0 0 0 0 0 0 0 0 0
0 0 0 0 0 0 0 0 0 0 0 0 0 0 0 0 0 0 0 0 0 0 0 0 0 0 0 0 0 0 0 0 0 0 0 0 0 0 0 0 0 0 0 0
0 0 0 0 0 0 0 0 0 0 0 0 0 0 0 0 0 0 0 0 0 0 0 0 0 0 0 0 0 0 0 0 0 0 0 0 0 0 0 0 0 0 0 0
0 0 0 0 0 0 0 0 0 0 0 0 0 0 0 0 0 0 0 0 0 0 0 0 0 0 0 0 0 0 0 0 0 0 0 0 0 0 0 0 0 0 0 0
0 0 0 0 0 0 0 0 0 0 0 0 0 0 0 0 0 0 0 0 0 0 0 0 0 0 0 0 0 0 0 0 0 0 0 0 0 0 0 0 0 0 0 0
0 0 0 0 0 0 0 0 0 0 0 0 0 0 0 0 0 0 0 0 0 0 0 0 0 0 0 0 0 0 0 0 0 0 0 0 0 0 0 0 0 0 0 0
0 0 0 0 0 0 0 0 0 0 0 0 0 0 0 0 0 0 0 0 0 0 0 0 0 0 0 0 0 0 0 0 0 0 0 0 0 0 0 0 0 0 0 0
0 0 0 0 0 0 0 0 0 0 0 0 0 0 0 0 0 0 0 0 0 0 0 0 0 0 0 0 0 0 0 0 0 0 0 0 0 0 0 0 0 0 0 0
0 0 0 0 0 0 0 0 0 0 0 0 0 0 0 0 0 0 0 0 0 0 0 0 0 0 0 0 0 0 0 0 0 0 0 0 0 0 0 0 0 0 0 0
0 0 0 0 0 0 0 0 0 0 0 0 0 0 0 0 0 0 0 0 0 0 0 0 0 0 0 0 0 0 0 0 0 0 0 0 0 0 0 0 0 0 0 0
0 0 0 0 0 0 0 0 0 0 0 0 0 0 0 0 0 0 0 0 0 0 0 0 0 0 0 0 0 0 0 0 0 0 0 0 0 0 0 0 0 0 0 0
Height
5558 5560 5562 5564 5567 5570 5571 5574 5577 5581 5583 5587 5589 5591 5593 5595 5596 5598 5599 5600 5601 5602 5603 5604 5604 5605 5606 5606 5607 5608 5608 5609 5609 5609 5610 5610 5610 5610 5611 5611 5612 5612 5612 5613
5547 5550 5552 5555 5559 5561 5563 5566 5568 5571 5575 5577 5579 5581 5583 5585 5587 5589 5590 5592 5593 5594 5594 5595 5596 5596 5597 5598 5598 5599 5600 5600 5600 5600 5601 5601 5601 5601 5602 5602 5602 5602 5603 5603
5538 5540 5541 5546 5550 5552 5554 5557 5559 5562 5566 5568 5570 5572 5574 5576 5578 5580 5581 5583 5585 5585 5586 5587 5588 5588 5589 5589 5590 5590 5591 5591 5591 5592 5592 5592 5592 5592 5592 5592 5592 5593 5593 5593
5528 5531 5533 5540 5541 5543 5545 5548 5550 5553 5556 5559 5561 5563 5565 5566 5569 5571 5572 5574 5575 5577 5578 5578 5579 5580 5581 5581 5582 5582 5582 5582 5583 5583 5583 5583 5583 5583 5583 5583 5583 5583 5583 5583
5520 5521 5524 5530 5531 5533 5536 5539 5542 5544 5546 5549 5551 5554 5556 5558 5559 5561 5563 5565 5566 5568 5569 5570 5571 5571 5572 5573 5573 5573 5574 5574 5574 5574 5574 5574 5573 5573 5573 5573 5573 5573 5573 5572
5512 5514 5517 5521 5523 5524 5528 5530 5533 5535 5537 5539 5542 5545 5548 5549 5550 5552 5554 5556 5557 5559 5560 5561 5562 5563 5563 5564 5564 5564 5564 5564 5564 5564 5564 5564 5564 5563 5563 5563 5562 5562 5562 5562
5505 5506 5509 5513 5515 5517 5521 5523 5525 5526 5528 5531 5533 5536 5538 5539 5540 5542 5544 5546 5548 5550 5551 5552 5553 5554 5554 5555 5555 5555 5555 5555 5555 5555 5555 5554 5554 5553 5552 5552 5552 5552 5552 5552
5499 5500 5505 5506 5508 5510 5511 5514 5515 5517 5520 5522 5524 5526 5528 5530 5531 5533 5535 5537 5538 5540 5541 5542 5543 5544 5545 5545 5546 5546 5546 5546 5546 5545 5545 5544 5544 5543 5543 5542 5542 5542 5541 5541
5493 5496 5497 5498 5500 5502 5503 5505 5507 5509 5511 5513 5515 5517 5519 5520 5522 5523 5525 5527 5528 5530 5531 5532 5533 5534 5535 5536 5536 5536 5536 5536 5536 5536 5535 5535 5534 5533 5533 5532 5532 5531 5531 5531
5486 5488 5490 5491 5493 5494 5496 5498 5499 5501 5503 5504 5506 5508 5510 5511 5513 5514 5516 5517 5519 5520 5521 5523 5523 5524 5525 5526 5526 5526 5527 5526 5526 5526 5525 5525 5524 5524 5523 5522 5521 5521 5520 5520
5480 5482 5483 5485 5486 5487 5489 5490 5491 5493 5494 5496 5498 5499 5501 5502 5504 5505 5506 5508 5509 5510 5511 5512 5513 5514 5515 5516 5516 5516 5516 5516 5516 5516 5515 5515 5514 5514 5513 5512 5511 5510 5510 5509
5475 5476 5477 5478 5479 5480 5481 5482 5483 5485 5486 5488 5489 5491 5492 5494 5495 5496 5497 5498 5499 5500 5501 5502 5503 5504 5505 5506 5506 5506 5506 5506 5506 5506 5505 5505 5504 5504 5502 5501 5500 5499 5498 5498
5469 5470 5470 5471 5472 5473 5474 5474 5475 5476 5478 5479 5481 5482 5483 5485 5486 5487 5488 5489 5490 5491 5492 5492 5493 5494 5495 5495 5495 5496 5496 5496 5496 5495 5495 5495 5494 5494 5493 5492 5490 5489 5488 5487
5462 5463 5464 5465 5465 5466 5466 5467 5468 5469 5470 5471 5472 5473 5474 5476 5477 5478 5479 5480 5481 5481 5482 5482 5483 5483 5484 5485 5485 5485 5485 5485 5485 5485 5485 5484 5484 5483 5482 5481 5481 5479 5478 5477
5456 5456 5457 5458 5458 5458 5459 5459 5460 5461 5462 5462 5463 5464 5466 5467 5468 5469 5470 5470 5471 5471 5472 5472 5473 5473 5473 5474 5474 5475 5475 5475 5475 5475 5474 5474 5473 5472 5471 5470 5470 5469 5468 5466
5450 5450 5450 5451 5451 5451 5452 5452 5453 5453 5454 5454 5455 5456 5457 5458 5459 5460 5460 5461 5461 5462 5462 5462 5462 5463 5463 5464 5464 5464 5464 5464 5464 5464 5464 5463 5462 5462 5461 5460 5459 5458 5457 5456
5443 5443 5444 5444 5444 5444 5444 5444 5445 5445 5446 5446 5447 5448 5448 5449 5449 5450 5450 5450 5451 5452 5452 5452 5452 5453 5453 5453 5454 5454 5454 5454 5454 5453 5453 5452 5451 5451 5450 5449 5448 5447 5446 5445
5436 5436 5436 5436 5436 5437 5437 5437 5437 5437 5437 5438 5438 5439 5439 5440 5440 5440 5440 5440 5441 5441 5442 5442 5442 5442 5442 5443 5443 5443 5443 5443 5443 5443 5442 5441 5441 5440 5439 5439 5438 5437 5436 5435
5429 5429 5428 5428 5429 5429 5429 5429 5429 5429 5429 5429 5429 5429 5430 5430 5430 5430 5430 5430 5430 5431 5431 5431 5431 5431 5431 5431 5432 5432 5432 5432 5432 5431 5431 5430 5430 5429 5429 5428 5427 5426 5426 5425
5422 5422 5421 5421 5421 5421 5421 5421 5421 5421 5420 5420 5420 5420 5420 5420 5420 5420 5420 5420 5420 5420 5420 5420 5420 5420 5420 5420 5421 5421 5421 5421 5421 5420 5420 5419 5419 5418 5418 5417 5417 5416 5416 5415
5416 5415 5415 5414 5414 5414 5414 5414 5413 5413 5412 5412 5411 5411 5411 5410 5410 5410 5410 5410 5409 5409 5409 5409 5409 5409 5409 5409 5410 5410 5410 5409 5409 5409 5409 5408 5408 5408 5407 5406 5406 5406 5405 5405
5409 5409 5408 5408 5408 5407 5407 5407 5406 5406 5405 5404 5404 5403 5402 5402 5401 5400 5399 5399 5399 5398 5398 5398 5399 5399 5399 5399 5399 5399 5399 5398 5398 5398 5398 5397 5397 5397 5397 5396 5396 5396 5396 5396
5403 5403 5402 5402 5401 5401 5400 5400 5399 5398 5398 5397 5396 5395 5394 5393 5392 5391 5390 5390 5389 5389 5389 5389 5389 5389 5389 5389 5389 5389 5388 5388 5388 5388 5388 5388 5387 5387 5387 5387 5387 5387 5387 5387
5397 5396 5396 5395 5394 5394 5393 5392 5392 5391 5390 5389 5388 5387 5386 5385 5384 5383 5382 5381 5380 5380 5380 5380 5380 5380 5380 5379 5379 5379 5379 5379 5379 5379 5379 5378 5378 5378 5378 5378 5378 5378 5378 5378
5390 5389 5389 5388 5387 5387 5386 5385 5384 5383 5382 5381 5380 5379 5378 5376 5376 5374 5373 5373 5372 5372 5371 5371 5371 5371 5371 5371 5371 5371 5371 5370 5370 5370 5370 5370 5370 5370 5370 5370 5370 5370 5370 5369
5384 5383 5382 5381 5380 5379 5378 5377 5376 5375 5374 5373 5372 5370 5369 5368 5367 5366 5366 5365 5364 5364 5363 5363 5363 5363 5363 5363 5363 5363 5362 5362 5362 5362 5362 5362 5362 5362 5362 5362 5362 5362 5362 5361
5378 5376 5375 5374 5373 5372 5371 5370 5369 5367 5366 5365 5364 5363 5361 5360 5359 5359 5358 5357 5357 5356 5356 5356 5355 5355 5355 5355 5355 5355 5355 5355 5355 5355 5355 5355 5355 5355 5355 5355 5355 5354 5354 5353
Wind_Speed
32 32 33 33 33 34 34 34 34 32 32 31 31 31 31 30 30 30 30 29 29 28 28 28 28 28 28 28 29 29 30 31 32 31 31 31 32 32 32 33 34 34 35 36
30 31 33 33 31 33 33 33 33 33 33 32 32 32 32 32 31 30 30 30 29 28 28 28 28 28 28 28 28 29 30 30 30 32 32 32 32 33 33 34 35 35 36 37
31 30 32 33 31 31 32 32 32 32 32 31 32 32 32 31 31 30 30 30 30 29 29 29 29 29 29 28 29 29 29 30 30 31 32 33 33 34 34 35 35 36 36 36
30 30 31 30 31 31 31 31 31 31 31 31 30 32 33 34 32 31 30 30 30 30 29 29 29 29 29 29 29 29 29 30 31 32 32 33 34 35 35 35 36 36 37 37
27 27 28 28 30 31 31 31 30 30 30 31 31 32 33 33 33 33 32 30 31 30 30 30 30 30 30 30 30 30 30 31 31 32 32 33 34 34 35 36 37 38 38 38
25 25 25 25 27 29 31 31 30 30 30 31 31 32 32 33 33 34 33 32 31 31 31 31 31 31 31 31 31 31 31 31 31 32 33 34 34 35 36 37 38 38 37 37
23 23 23 22 23 25 28 29 30 31 31 31 31 31 31 31 32 33 33 33 32 32 32 32 32 31 31 31 31 31 32 32 32 32 33 34 35 35 36 37 37 37 37 37
21 22 22 22 23 25 26 27 30 31 31 31 31 30 31 31 32 32 33 34 34 33 33 33 33 32 32 32 32 32 32 32 33 33 34 34 35 35 35 36 36 37 37 36
22 22 22 22 23 25 26 26 27 28 29 29 29 30 30 31 31 32 33 33 33 33 33 33 33 33 33 32 32 33 33 33 33 34 34 34 34 35 35 35 35 36 36 36
20 21 22 24 25 25 25 25 26 27 28 28 29 29 29 30 31 32 32 33 33 33 33 32 32 32 33 33 33 33 34 34 34 34 34 34 34 34 34 34 35 36 36 36
19 21 21 22 24 25 26 26 27 27 27 28 28 29 29 29 30 31 31 32 33 34 34 34 33 33 33 33 33 33 34 34 34 34 34 34 34 35 35 35 35 36 36 36
19 20 21 21 23 24 24 25 26 27 27 27 28 29 29 30 30 30 31 31 32 32 33 33 33 33 33 33 33 33 34 34 34 34 34 34 34 34 35 36 36 36 36 36
20 21 22 22 22 23 24 24 25 25 27 28 29 30 30 30 31 31 31 31 31 32 32 32 33 33 34 34 34 34 34 34 34 34 34 34 34 35 35 35 35 36 36 36
20 22 23 23 23 23 23 24 25 26 26 27 28 29 30 30 30 30 31 32 32 32 32 33 33 34 34 34 35 35 35 34 34 34 34 34 34 35 35 35 35 36 36 36
21 22 23 23 23 23 23 24 24 25 26 26 27 27 28 29 29 30 31 31 32 32 33 33 33 33 33 33 33 34 34 34 34 35 35 35 35 35 35 35 36 36 36 36
22 23 23 23 23 22 23 24 25 25 26 26 27 27 28 28 29 30 31 32 32 32 33 32 32 32 32 32 33 33 34 34 35 35 35 35 35 35 35 35 34 34 34 35
22 22 23 24 23 23 23 24 25 26 26 27 28 28 28 28 29 30 31 31 32 32 32 32 33 33 34 34 34 34 34 34 34 34 34 34 34 34 34 34 34 34 34 34
21 22 22 23 23 23 23 23 24 25 27 27 27 28 28 29 30 30 30 31 31 32 33 33 33 34 35 35 34 34 34 34 34 34 34 34 34 33 33 33 33 33 33 33
20 21 21 22 23 22 23 23 24 25 26 27 28 29 30 31 31 31 31 31 31 32 33 34 35 35 35 35 34 34 34 34 35 35 35 34 34 34 34 34 33 33 32 32
20 21 21 21 21 21 22 22 23 24 25 26 27 28 29 30 30 30 31 31 32 33 33 34 34 34 34 34 34 34 35 35 35 35 34 34 34 35 34 34 33 32 31 31
19 20 20 20 20 21 21 21 22 22 23 24 25 26 27 28 29 30 31 31 32 33 33 33 32 32 32 33 33 34 34 34 34 34 34 34 34 34 33 32 32 31 30 30
18 18 18 19 19 20 20 21 21 22 22 23 24 25 26 27 28 29 30 30 31 31 31 31 31 31 31 32 32 32 32 32 33 32 32 32 32 32 31 31 30 29 29 29
18 18 18 19 20 20 21 21 22 22 23 24 24 25 25 26 27 27 27 28 28 28 28 28 28 29 29 29 30 30 30 30 30 30 30 29 29 29 28 28 28 28 27 27
19 19 20 20 20 21 22 23 23 23 24 25 25 25 25 25 26 26 26 26 26 26 26 27 27 28 28 28 27 27 27 27 27 27 26 26 25 25 25 25 25 25 26 26
19 20 20 21 21 22 23 23 24 24 25 25 25 25 25 25 25 25 25 24 24 24 24 25 25 26 26 26 26 26 26 25 25 25 25 24 24 24 24 24 24 25 25 26
18 19 19 20 21 21 22 22 23 23 24 24 24 24 25 25 24 23 23 23 23 23 22 22 22 23 23 23 23 23 23 23 23 23 23 23 23 23 23 23 24 24 24 25
17 18 18 18 19 19 20 20 21 21 22 23 23 24 23 23 23 22 22 21 21 21 21 21 21 21 21 21 22 22 22 22 21 21 21 21 22 22 22 22 22 22 22 22
Wind_Direction
253 251 248 246 245 246 246 246 249 249 248 247 247 247 247 249 252 254 256 256 257 257 257 258 257 256 256 258 257 258 260 262 262 262 263 263 262 262 261 262 264 264 263 263
254 252 249 246 245 245 244 246 249 248 247 246 247 247 248 250 252 254 255 255 256 257 257 258 257 256 257 258 258 260 261 262 264 264 264 264 263 262 262 263 264 264 264 264
254 253 249 246 244 243 242 245 248 247 248 248 249 248 249 251 252 252 254 255 256 258 258 257 256 255 256 257 259 261 262 263 263 264 264 264 264 263 263 263 264 265 267 266
254 250 251 250 245 244 242 242 245 246 247 247 248 249 249 251 253 253 254 255 255 256 257 257 257 257 258 259 261 262 263 264 263 263 264 265 265 266 265 265 265 266 268 269
252 251 251 248 246 245 244 242 242 244 245 246 248 248 249 251 253 253 255 255 255 256 256 257 257 258 259 260 262 263 264 264 264 264 265 266 267 267 267 267 268 268 269 270
251 251 250 249 248 247 246 244 242 245 247 249 250 251 251 250 251 251 252 253 255 256 256 257 258 259 260 261 263 264 264 264 264 266 266 267 269 268 269 269 270 269 270 271
247 249 248 247 247 246 247 247 245 247 247 248 250 251 251 251 250 250 251 252 255 256 256 257 259 260 261 262 263 263 264 264 264 266 267 269 269 270 270 270 270 270 270 271
244 246 247 247 247 247 248 247 248 248 248 249 249 250 251 251 251 251 252 254 255 257 257 258 259 260 261 262 263 264 264 264 266 267 268 270 271 271 271 271 271 271 271 272
246 246 246 247 249 248 247 248 248 248 247 246 247 249 251 251 253 254 254 256 257 257 258 258 259 259 260 261 263 263 264 266 267 269 270 271 270 271 271 272 272 272 272 274
250 247 247 247 249 250 251 252 252 250 250 249 249 250 252 253 254 255 256 257 258 257 258 259 260 261 260 261 263 264 265 266 268 269 270 270 270 271 271 272 273 273 274 275
249 248 249 249 250 252 253 254 253 252 252 252 252 253 253 254 255 256 258 259 259 260 260 260 261 262 262 262 264 265 265 266 268 269 269 269 269 270 271 272 273 274 275 275
252 250 252 253 252 254 255 255 254 252 251 252 253 253 254 255 257 258 259 259 261 262 262 262 262 263 264 264 265 266 267 267 267 268 269 270 270 271 273 273 274 275 275 274
255 254 254 254 255 255 256 255 254 253 254 253 254 255 256 258 259 259 259 259 261 263 263 263 263 264 266 266 266 267 268 268 269 270 271 271 272 273 274 275 275 275 275 275
257 256 255 256 257 258 257 257 257 256 257 257 257 257 258 259 260 261 261 261 261 262 263 264 265 265 266 266 266 267 268 268 269 270 272 274 274 275 276 276 276 276 276 277
257 257 257 257 260 261 259 259 260 260 260 260 259 258 258 259 261 262 263 263 263 264 265 266 266 266 267 267 267 267 267 267 268 270 273 275 276 276 276 277 277 277 277 277
259 259 258 259 261 261 259 259 261 261 261 261 260 260 261 262 262 262 264 264 264 265 266 266 265 264 265 267 267 267 267 267 268 270 272 274 275 275 276 276 277 277 277 277
261 263 262 261 261 261 261 260 260 261 262 263 262 263 264 265 265 265 265 264 263 263 265 266 265 264 265 266 266 267 267 268 269 270 271 273 274 275 275 275 276 276 277 277
266 266 266 264 263 264 264 263 262 262 263 263 263 264 265 266 267 267 267 266 265 264 265 266 267 266 266 266 266 267 267 268 269 270 271 272 273 273 274 275 275 275 275 275
268 268 268 267 265 265 265 265 265 266 266 265 265 266 267 267 268 268 268 267 266 266 267 268 269 268 267 267 266 266 267 269 270 270 271 271 272 271 272 273 274 274 274 274
270 270 270 267 265 265 265 265 266 267 267 267 267 267 268 269 269 270 270 269 268 268 269 269 270 269 268 266 266 267 268 269 270 270 270 270 271 272 272 273 273 272 272 272
272 272 270 267 266 266 266 266 267 269 269 270 270 271 271 271 272 272 272 271 270 269 269 269 269 268 268 267 267 267 268 269 269 269 270 270 270 271 271 271 271 270 270 270
274 273 271 270 269 269 268 269 270 272 274 275 275 275 275 275 275 275 274 273 272 271 269 269 268 268 268 268 267 268 268 268 269 269 269 269 270 270 269 269 269 269 269 270
276 275 275 274 274 273 273 274 274 275 277 278 278 279 279 279 278 277 276 274 273 270 268 267 267 268 268 268 268 267 267 268 269 269 269 269 269 268 268 267 267 267 268 269
276 277 277 276 276 276 276 276 277 277 278 279 280 281 282 281 280 279 278 275 272 271 269 268 267 267 268 268 268 268 268 268 268 268 269 268 267 266 265 266 266 266 267 269
278 278 278 277 276 277 278 279 279 279 280 280 281 281 282 282 282 281 279 277 274 272 271 271 269 267 267 267 268 269 269 268 268 267 266 265 264 264 265 266 267 268 269 270
282 280 280 279 279 279 280 281 281 280 280 281 281 281 282 282 282 281 279 277 274 271 270 270 270 268 267 267 268 268 268 268 267 266 265 264 264 265 266 268 269 270 270 270
286 284 284 283 282 282 282 284 284 284 283 283 282 282 282 282 281 280 279 277 274 271 270 268 267 268 268 268 268 268 267 266 266 266 266 265 264 264 266 268 269 270 271 270